Location: Baumgartsau
(48.4586°N, 14.0864°E)
Time: 17:44:03
(UTC+00:00)

COSMOS 2455 - Pass Details

Date: 09 April 2020
Orbit: 900 x 910 km, 67.1° (Epoch: 25 May)

Event Time Altitude Azimuth Distance (km) Brightness Sun altitude
Rises 18:15:50 0° 326° (NW) 3,546 6.9 -5.5°
Reaches altitude 10° 18:18:25 10° 331° (NNW) 2,602 6.0 -5.9°
Maximum altitude 18:24:21 56° 49° (NE) 1,076 3.1 -6.8°
Drops below altitude 10° 18:30:16 10° 128° (SE) 2,592 4.6 -7.8°
Enters shadow 18:30:45 - 129° (SE) 2,768 4.8 -7.8°
